Wind_Speed
19 18 18 18 17 16 16 15 15 15 15 15 15 14 14 13 12 12 12 12 12 11 11 11 12 12 12 12 12 11 11 11 11 11 10 10 10 10 9 9 9 8 8 8 7 6 6 6 6 6 5 5 5 4 4 4 4 5 5 5 5 5 5 5 4 4 6 6 6 7 7 7 6 5 5 6 7 9 9 10 10 10 10 10 10
20 19 19 19 18 18 17 17 17 17 17 17 16 16 15 15 14 14 13 13 12 12 12 12 12 12 13 13 12 12 11 11 11 11 11 11 11 11 10 10 9 9 9 9 8 8 7 7 7 6 6 6 6 5 5 5 5 4 4 5 5 5 6 6 6 5 6 7 8 7 7 7 7 7 6 6 7 8 9 10 10 11 11 10 11
21 21 20 20 19 19 19 18 18 18 18 18 18 17 17 16 16 16 15 15 14 13 13 13 13 14 14 14 13 13 13 12 12 12 12 12 12 11 11 11 11 11 11 10 9 9 8 8 8 7 6 6 6 6 6 6 6 5 5 5 6 6 6 6 7 7 7 8 9 9 9 9 9 9 8 8 8 9 10 11 11 12 12 12 12
22 22 22 21 21 20 20 20 19 20 20 20 20 19 19 18 18 17 17 16 16 15 15 15 15 15 15 15 15 14 14 14 14 14 14 14 14 13 13 12 12 12 12 11 11 10 9 9 9 9 8 7 8 8 7 7 7 7 7 7 8 8 8 8 8 9 9 9 9 9 10 11 12 12 12 11 10 10 11 12 13 14 14 14 14
23 23 23 23 22 22 22 21 21 21 22 22 21 21 21 20 20 19 18 18 17 17 17 17 17 17 17 16 16 16 16 16 16 15 15 16 15 15 15 14 14 14 14 13 12 11 11 11 10 10 9 9 9 9 9 9 9 9 9 9 9 9 9 10 10 10 10 9 9 10 11 13 14 15 14 14 13 12 12 13 13 14 15 15 15
26 25 25 25 24 24 24 23 23 23 24 24 23 23 23 22 22 21 20 19 19 18 18 18 18 17 17 17 17 16 16 16 16 16 16 16 16 16 16 15 15 16 16 15 15 14 14 13 13 13 12 12 12 12 12 11 11 11 11 11 11 11 11 11 12 12 11 11 11 12 12 14 15 16 16 16 15 15 14 14 14 14 14 15 15
28 28 28 27 27 27 26 26 26 26 26 26 25 25 24 24 24 23 21 21 20 20 20 19 19 19 18 18 18 17 17 17 16 16 15 15 15 15 15 16 16 17 17 18 17 17 17 17 16 16 15 14 14 14 14 14 14 14 13 13 14 14 14 14 14 14 14 14 14 14 13 15 17 18 18 18 17 17 16 15 15 14 14 14 14
31 31 31 30 30 30 30 29 29 29 29 29 28 27 26 26 26 25 24 23 23 22 21 21 21 20 20 20 19 19 19 18 18 18 16 16 15 14 15 16 16 17 18 19 19 19 19 19 18 17 17 16 16 16 16 15 15 15 15 15 15 15 15 15 16 16 16 16 16 16 16 16 18 19 20 20 19 19 19 18 17 16 15 15 14
32 32 32 32 32 32 32 32 32 32 32 31 30 29 29 28 28 27 27 26 25 25 24 23 23 22 22 22 22 22 21 19 20 21 20 18 17 16 17 17 17 18 19 19 20 20 19 19 18 18 17 17 17 17 16 15 16 16 15 15 15 15 15 16 16 17 17 17 18 18 18 18 19 20 21 22 22 21 22 21 20 19 18 16 15
32 32 32 33 33 33 33 33 32 32 33 32 32 31 30 29 29 29 29 28 27 26 26 25 25 25 25 25 25 24 23 21 23 24 23 21 20 19 20 21 20 21 21 20 22 22 20 19 19 18 18 19 18 17 17 17 17 17 16 15 14 14 14 15 16 16 17 18 18 18 18 19 19 20 22 24 25 24 23 23 22 21 20 19 17
33 32 32 33 34 33 32 32 31 31 31 31 31 31 31 30 30 30 30 30 29 28 28 27 28 28 27 27 27 25 24 24 26 26 25 24 23 22 23 23 23 24 23 22 24 24 22 22 21 19 20 20 19 19 20 20 19 17 15 14 14 14 15 16 16 16 17 18 18 18 19 20 20 20 21 24 27 27 26 25 24 23 22 21 20
30 29 30 31 32 31 30 29 29 28 27 28 30 31 31 30 31 31 31 31 31 30 30 29 30 30 29 29 29 26 25 26 26 26 25 25 25 24 24 24 24 24 24 24 25 25 24 23 23 22 22 22 20 21 22 21 19 18 17 16 17 17 17 17 18 18 18 19 19 20 21 21 22 21 20 22 26 28 28 27 26 26 25 24 23
27 27 27 28 29 29 29 28 27 26 27 28 30 31 30 29 29 30 32 32 33 33 32 31 31 31 30 31 30 27 26 27 26 26 26 26 25 25 25 24 25 25 25 25 25 25 24 24 24 24 24 23 21 21 22 21 21 21 20 20 20 21 21 21 22 22 22 22 22 22 22 22 23 23 23 23 25 27 28 29 29 27 27 27 26
28 29 30 30 30 31 32 31 29 28 29 30 30 31 31 29 29 30 32 33 32 32 32 32 32 32 31 31 30 28 28 28 26 26 26 26 25 25 24 24 24 24 24 24 25 25 24 24 24 24 24 23 22 22 23 23 24 24 24 24 25 25 25 25 25 26 26 26 26 26 26 24 23 25 26 26 25 24 25 29 31 29 29 29 28
32 32 33 33 33 34 34 34 32 31 31 31 32 33 33 33 31 31 31 32 32 30 30 32 33 33 32 32 30 28 27 27 27 26 26 25 25 24 23 23 23 23 23 23 23 24 25 24 24 24 24 24 24 24 25 26 26 27 29 29 30 30 29 28 28 29 29 30 30 30 30 28 26 26 27 28 27 24 23 26 29 29 29 29 29
33 33 33 34 35 36 37 38 37 34 34 34 35 35 35 36 36 34 32 32 32 31 29 30 32 33 33 32 30 28 28 27 26 25 25 24 24 24 24 24 24 24 23 21 21 23 26 26 25 25 26 27 26 27 28 29 29 29 30 31 32 32 31 30 30 31 33 34 34 34 33 31 29 28 30 32 31 29 28 29 30 29 30 30 29
34 35 35 35 36 36 38 41 42 40 39 38 38 37 37 39 41 40 37 36 35 33 32 31 32 33 33 32 30 29 28 27 26 25 25 25 25 26 26 26 26 26 24 23 23 25 27 27 27 27 28 29 29 29 31 32 31 30 30 31 31 31 32 32 32 34 35 36 36 36 35 34 33 31 31 33 34 33 32 32 32 31 31 30 30
33 33 34 34 35 36 38 40 43 45 45 42 41 42 42 44 45 44 42 40 37 36 35 35 35 35 34 33 31 29 29 28 27 27 26 27 27 28 28 29 29 29 28 28 28 29 30 29 29 30 31 32 32 32 33 33 34 33 33 32 31 31 32 33 33 34 35 36 38 38 38 38 38 37 34 34 37 38 35 34 33 31 29 30 32
27 27 28 30 33 35 37 38 40 44 46 46 46 47 46 46 46 45 44 42 38 37 37 38 39 38 35 33 31 30 29 30 30 29 29 29 30 31 32 32 32 32 32 32 33 33 34 33 33 33 34 34 34 35 35 35 36 36 36 36 35 34 34 35 35 35 36 38 39 38 38 39 40 41 40 38 37 38 37 36 35 31 29 31 33
21 19 18 22 25 28 31 36 38 39 41 44 48 49 49 50 49 47 44 41 38 38 40 40 40 39 36 34 32 32 32 32 32 32 32 32 33 33 33 34 33 33 33 33 33 33 34 34 34 36 37 37 37 38 38 39 38 38 39 39 38 38 38 37 37 37 37 38 39 39 40 41 41 40 40 40 38 36 37 37 35 31 29 31 34
18 14 10 11 16 20 24 30 35 39 43 46 49 50 50 51 51 47 44 41 40 41 42 42 41 39 37 36 34 33 33 33 34 35 35 34 34 33 32 32 31 31 31 31 31 30 31 31 32 33 35 36 37 38 39 39 40 39 40 40 40 41 41 40 39 37 35 37 38 37 35 35 36 36 36 38 39 38 38 37 35 32 30 32 36
18 17 13 13 17 20 21 22 25 30 34 37 40 44 46 47 46 42 41 42 43 44 42 40 40 39 38 38 37 36 34 34 33 33 33 32 32 31 30 29 30 30 30 30 30 30 29 29 30 30 32 33 34 35 35 36 37 38 38 38 39 40 40 40 39 36 34 36 35 31 27 27 29 31 33 35 37 37 36 35 33 32 31 31 36
17 18 17 16 17 17 16 14 13 14 16 17 20 27 35 42 44 42 40 40 41 42 41 39 38 38 38 38 38 37 34 32 31 30 29 30 30 30 30 30 30 30 30 30 31 31 31 31 31 31 32 32 32 32 33 34 35 35 34 33 33 34 34 35 35 34 34 34 30 27 27 25 23 24 28 31 33 34 33 33 33 34 34 33 35
20 19 18 17 17 16 14 12 9 8 9 10 10 10 14 22 28 30 31 30 29 30 32 32 33 35 35 35 36 36 33 32 31 30 30 30 30 31 31 31 30 30 30 31 31 32 32 32 32 33 33 33 33 33 33 34 34 34 34 33 32 32 32 32 33 33 32 30 27 28 29 26 23 22 22 23 26 28 30 32 34 35 37 39 40
23 22 20 20 20 19 17 14 10 8 9 10 9 7 6 8 10 13 16 17 17 17 18 19 22 26 26 27 30 31 30 30 30 30 30 29 30 30 31 31 30 31 31 32 32 33 33 34 34 34 35 35 35 35 35 35 35 35 35 35 35 35 34 33 33 31 30 29 30 31 29 27 25 24 23 24 27 29 31 33 35 37 39 41 43
22 22 21 22 23 24 23 19 15 13 13 12 10 9 10 11 11 13 15 17 16 17 20 21 22 23 22 22 24 25 26 28 29 29 30 30 31 31 32 32 33 33 34 34 34 35 36 37 37 38 38 37 37 37 37 37 37 37 37 36 36 36 35 34 33 33 32 33 35 34 31 30 30 31 32 34 33 33 34 36 37 38 40 41 42
20 21 21 21 22 24 25 22 18 16 17 16 15 15 15 17 18 19 21 21 21 22 24 25 25 24 23 23 24 26 27 29 30 30 31 31 32 33 34 35 35 36 36 37 37 38 38 39 39 40 40 39 39 39 39 39 39 39 39 38 37 37 37 36 36 36 37 39 41 41 41 41 41 41 41 40 36 35 35 36 38 39 40 41 42
20 21 22 22 23 24 24 23 21 20 19 19 19 19 19 20 21 22 23 24 24 25 26 26 26 26 26 26 27 28 29 31 32 32 33 34 35 36 36 37 38 38 39 39 40 40 40 40 41 41 41 41 40 40 40 40 40 41 41 40 40 39 39 39 39 40 41 43 44 45 45 45 43 41 40 39 38 37 37 37 39 40 42 43 44
17 19 21 22 23 24 24 24 23 23 22 21 22 22 22 23 24 25 26 26 27 28 28 28 29 30 30 31 31 32 33 34 35 36 37 38 38 39 39 40 41 41 42 42 43 43 43 43 43 43 43 43 43 42 42 42 42 42 42 43 43 43 43 42 42 43 44 45 46 47 46 46 44 42 41 40 38 37 37 39 41 42 44 45 46
19 20 21 22 23 24 24 25 25 25 24 24 24 25 26 26 27 28 29 29 30 30 31 31 32 32 33 34 35 36 37 37 38 39 40 41 42 42 43 43 44 45 45 46 46 46 47 47 47 47 47 47 47 47 47 47 46 46 46 46 46 47 47 47 46 46 47 47 48 49 49 49 48 47 46 45 43 41 41 42 43 44 44 45 46
23 23 23 23 24 24 25 25 26 26 26 27 26 27 27 28 29 30 31 31 32 33 33 34 35 35 36 36 37 38 39 40 41 41 42 43 44 45 46 47 47 48 49 49 50 50 51 51 51 51 51 51 51 51 52 51 51 51 51 51 51 51 51 51 51 51 51 51 51 52 52 52 52 51 50 49 48 46 45 45 45 46 46 46 46
25 25 26 25 26 26 26 27 28 28 29 29 30 30 31 31 32 33 33 34 35 36 37 37 38 39 39 40 40 41 42 42 43 44 44 45 46 46 47 48 48 49 50 51 51 52 53 54 54 55 55 55 55 55 56 56 56 56 55 55 55 54 54 54 54 54 54 54 54 55 55 55 55 55 54 53 52 51 50 49 48 48 49 49 49
26 26 27 28 28 28 29 29 30 31 31 32 33 34 34 34 34 35 35 36 37 38 39 39 40 41 42 43 43 44 45 46 46 47 47 48 48 49 50 50 50 51 51 52 52 53 54 54 55 55 56 56 56 56 57 57 57 58 58 58 58 58 58 58 58 58 58 57 57 57 57 57 57 57 56 56 55 55 54 53 52 51 51 52 51
26 27 27 28 28 29 29 30 30 31 32 32 33 34 34 35 35 36 36 37 37 38 39 40 41 42 43 44 45 45 46 47 48 49 49 50 51 51 52 53 54 54 55 55 56 56 56 57 57 57 58 58 58 58 58 58 58 58 58 59 59 59 59 60 60 60 60 60 60 59 59 58 58 58 58 57 57 57 57 56 56 55 54 54 54
24 25 26 26 27 27 28 29 29 30 31 32 32 33 33 34 35 36 37 37 38 38 39 40 41 42 43 44 46 47 48 49 49 50 51 52 52 53 54 55 56 56 57 57 58 58 59 59 60 60 60 60 60 60 60 60 60 60 60 60 60 60 60 60 60 60 61 61 61 61 60 60 59 59 59 58 58 58 58 58 58 57 57 57 57
22 23 24 24 25 26 27 27 28 29 30 31 32 33 34 35 36 37 38 39 40 41 41 42 43 45 46 47 48 49 50 51 51 52 53 54 55 56 56 57 58 58 59 59 59 60 60 61 61 61 62 62 62 62 62 62 62 62 61 61 61 61 61 61 61 61 61 61 61 61 61 61 61 61 61 60 59 59 59 59 59 59 59 59 60
21 22 23 24 24 25 26 27 28 28 30 31 32 33 35 36 38 39 40 42 43 44 45 46 47 48 49 50 51 52 53 54 55 55 56 57 58 58 59 60 60 61 61 62 62 62 62 63 63 63 63 63 64 64 64 64 64 64 64 63 63 63 63 62 62 62 62 61 61 62 62 62 62 62 62 61 61 61 60 60 59 59 59 60 60
21 22 22 23 25 26 27 28 29 30 32 33 35 36 38 39 40 42 43 45 46 47 49 50 50 51 52 53 54 55 56 57 58 59 60 60 61 61 62 63 63 64 64 64 65 65 65 65 65 66 66 66 66 66 66 66 66 66 66 66 66 65 65 65 64 64 64 63 63 62 62 62 62 62 62 61 61 61 61 60 60 60 59 59 60
23 24 25 26 27 29 30 31 33 34 35 36 37 39 40 41 43 44 45 47 48 49 51 52 54 55 56 56 57 58 59 60 61 63 63 64 65 65 66 66 67 67 68 68 68 68 68 68 68 68 68 68 68 68 68 68 68 68 68 68 68 67 67 67 66 66 65 65 65 64 64 63 62 62 62 62 62 61 61 61 61 61 61 60 60
26 27 29 30 32 33 34 35 36 37 38 39 40 41 42 43 44 45 47 48 49 50 52 53 55 57 58 59 60 61 62 63 65 66 67 68 69 69 70 70 71 71 71 72 72 72 72 72 72 72 72 72 72 72 71 71 71 71 71 70 70 69 68 68 67 66 66 65 65 65 64 64 63 63 62 62 62 62 62 62 62 62 62 62 62
29 30 32 33 34 35 37 38 39 40 41 42 42 43 44 45 46 47 48 50 51 52 54 55 57 58 59 60 61 62 63 64 66 67 68 70 72 72 73 74 74 75 75 75 75 76 76 76 77 76 76 76 76 76 75 75 75 74 74 74 73 72 72 70 69 68 67 66 65 65 64 64 63 63 63 63 63 63 63 63 63 63 63 63 63
30 31 32 34 35 36 38 39 40 41 42 43 43 44 45 47 48 49 51 52 53 55 56 57 59 60 62 62 63 65 65 66 67 68 69 71 72 73 74 75 76 77 78 78 78 79 79 79 80 80 80 80 80 80 79 79 79 78 78 77 76 75 74 73 72 70 69 68 66 65 64 63 63 62 62 62 62 62 62 63 63 63 63 63 63
32 33 34 36 37 38 39 40 41 42 42 44 45 46 47 48 50 51 52 54 55 57 58 60 61 63 65 66 67 68 69 70 71 72 73 74 75 76 76 77 78 79 80 80 81 81 81 82 82 82 82 81 81 81 81 81 81 80 80 79 78 77 76 74 73 71 70 69 68 67 66 65 64 63 62 62 61 61 61 61 62 62 63 63 64
34 35 37 38 39 39 40 41 41 43 44 45 47 48 49 50 52 53 55 56 57 59 60 62 63 65 66 67 68 69 70 71 72 72 73 74 76 76 78 79 79 80 81 82 82 82 83 84 84 83 83 83 83 82 82 82 82 81 81 80 78 76 75 73 71 70 69 68 67 67 66 65 65 64 64 63 62 62 61 61 61 62 62 62 63
35 36 38 38 39 40 41 42 44 45 46 48 49 50 52 53 54 55 57 58 59 60 61 63 63 64 65 65 65 65 65 66 67 68 69 70 71 72 74 76 78 79 81 82 82 83 83 83 83 82 82 82 82 82 81 80 80 79 78 77 77 75 74 72 70 69 68 67 66 65 65 64 64 63 63 63 62 62 62 62 62 62 62 62 62
36 38 39 40 41 42 44 45 46 48 49 50 52 53 54 55 56 57 58 59 60 60 61 61 61 61 61 60 60 60 60 61 62 63 64 65 66 66 67 69 71 73 75 77 79 80 80 80 80 79 78 77 77 76 76 75 75 74 73 72 72 71 70 68 67 66 65 64 64 63 62 61 60 60 60 60 60 60 60 60 60 60 60 60 60
38 39 40 42 43 45 46 47 49 50 52 53 54 55 56 56 57 58 59 60 60 60 59 59 59 58 58 57 57 57 58 59 59 60 61 62 62 61 61 61 62 63 64 66 67 68 68 68 67 68 68 68 67 67 66 66 66 66 65 65 63 62 61 62 62 62 61 59 59 58 58 57 57 57 57 56 56 55 55 55 54 55 55 56 56
39 40 42 43 45 47 48 50 51 53 54 55 55 56 56 58 59 59 60 60 59 59 58 58 57 56 56 56 56 57 58 59 59 59 59 59 59 58 58 57 57 56 55 54 53 55 56 56 56 56 56 55 54 54 54 55 55 56 56 54 53 53 54 55 55 54 54 54 54 53 53 53 52 52 52 51 51 50 50 50 51 51 52 52 53
40 42 44 45 47 49 51 52 53 54 54 54 55 56 57 58 58 58 58 58 58 57 57 56 55 55 55 55 56 57 58 58 58 58 58 58 57 56 56 55 55 53 49 46 45 45 47 49 52 53 53 53 53 54 54 54 54 56 55 52 49 49 49 48 47 47 48 48 49 49 49 50 50 50 50 50 50 50 50 50 50 51 51 51 52
42 44 46 48 49 51 52 53 53 53 54 54 55 56 57 57 57 57 56 56 55 55 55 54 54 54 55 55 55 56 57 57 57 56 56 55 54 53 54 54 52 50 47 45 45 44 42 42 44 46 47 46 47 49 49 47 46 48 49 48 47 47 45 43 43 43 44 44 45 47 48 49 50 50 50 49 48 48 48 49 49 50 50 51 52
44 46 48 49 51 51 52 52 53 53 54 55 55 56 55 55 55 55 54 54 54 53 53 53 53 53 53 54 54 55 55 55 54 52 51 50 50 51 52 50 48 45 44 44 45 47 47 46 45 45 45 45 46 46 45 44 44 44 44 44 46 49 49 47 45 44 44 44 45 46 46 46 45 45 45 45 46 46 47 47 48 48 49 50 51
Wind_Direction
221 220 221 222 222 222 223 223 222 221 220 220 219 219 221 223 224 226 226 227 228 226 222 220 221 221 222 223 225 227 230 234 235 237 238 240 243 246 250 254 260 264 268 274 279 284 289 294 295 297 300 302 304 305 304 302 301 296 294 298 303 308 311 310 312 311 309 313 317 317 317 321 322 312 291 287 291 297 305 312 317 320 323 328 330
227 226 225 225 225 225 225 226 226 226 226 226 225 224 225 226 228 231 232 233 235 234 231 229 228 229 230 231 231 233 235 237 239 241 242 242 244 246 249 253 258 264 268 272 277 281 284 286 287 289 292 293 295 299 304 308 310 307 304 305 309 312 316 316 314 311 309 311 313 313 313 314 313 308 298 291 289 292 297 303 307 309 312 317 320
230 231 230 229 229 230 230 231 230 231 231 231 231 229 229 230 232 233 236 237 239 240 241 240 238 238 238 239 239 240 240 240 241 244 246 247 248 250 253 256 259 263 266 270 273 276 278 278 281 285 285 283 285 289 295 300 302 304 304 304 305 307 309 307 304 302 300 301 304 307 307 307 306 303 299 298 298 298 300 303 305 306 308 311 315
232 233 233 233 233 233 234 234 235 236 236 236 236 235 234 234 235 237 239 241 243 245 246 247 246 245 244 244 245 245 245 245 244 245 248 250 251 252 254 257 260 261 262 265 266 268 270 272 277 281 281 279 279 281 284 286 287 288 291 293 295 298 301 301 300 300 299 299 302 305 306 307 306 304 302 302 303 302 302 304 305 306 308 311 313
232 233 234 235 235 235 235 236 237 238 239 240 240 240 240 240 239 240 241 243 246 248 249 250 250 249 247 247 247 248 249 251 249 248 249 252 254 257 257 258 259 261 261 261 261 261 261 263 267 270 272 272 272 273 275 276 277 278 279 282 284 286 290 292 294 295 297 298 301 303 304 305 305 305 306 307 306 304 302 302 302 303 307 309 311
232 233 234 234 235 235 235 235 236 237 239 241 242 242 243 245 244 243 243 245 247 249 250 250 250 249 249 249 249 250 251 252 253 251 252 255 258 260 261 261 260 260 260 260 259 258 256 256 257 259 261 262 264 266 267 268 269 271 274 276 276 277 279 282 285 287 288 291 294 297 299 300 301 303 305 308 308 306 304 303 302 302 304 306 308
233 234 234 234 235 236 236 236 236 236 237 239 241 242 244 246 247 246 245 246 247 248 250 250 250 250 250 250 251 251 252 253 253 253 254 256 259 260 262 263 262 261 259 258 256 255 254 252 252 254 255 256 258 260 262 265 266 267 269 271 273 275 275 277 280 282 285 289 292 293 296 297 298 298 300 302 303 303 302 302 301 301 299 298 300
232 234 234 235 235 236 236 237 237 238 238 238 239 240 242 244 246 247 247 246 246 247 248 249 252 253 254 255 255 254 254 256 259 259 257 257 261 265 268 270 271 270 269 266 262 259 258 257 256 256 255 255 256 256 257 261 265 268 270 272 274 277 278 280 283 285 287 288 287 287 288 290 292 295 296 296 297 297 297 297 297 296 295 293 292
232 234 235 236 237 238 239 239 239 240 241 241 240 240 240 242 243 245 246 246 246 247 249 250 252 255 257 258 259 258 257 258 261 260 257 255 256 258 260 263 266 268 270 272 271 267 265 264 263 262 261 258 255 256 257 260 263 265 265 267 270 274 277 279 281 283 285 286 285 285 284 285 288 291 294 293 292 292 293 293 293 293 293 291 289
232 234 236 238 239 241 242 244 245 245 246 248 247 246 244 243 244 245 246 247 248 249 252 255 257 258 258 259 259 260 260 259 258 257 258 257 254 251 250 252 253 256 259 264 268 267 264 263 263 264 266 264 260 260 260 257 256 257 257 261 267 272 276 279 280 281 282 283 283 281 281 282 283 286 292 294 291 289 289 289 289 290 291 290 289
232 234 236 239 241 243 245 247 249 250 251 253 255 255 253 250 248 248 248 249 250 251 252 255 258 258 258 258 258 258 260 259 258 259 261 262 260 257 255 255 254 255 255 256 259 262 262 262 262 262 263 265 265 264 261 256 255 257 261 267 272 277 282 285 286 287 286 285 285 282 281 279 277 281 290 292 289 287 287 287 287 287 287 287 288
233 235 237 241 243 245 245 246 248 249 249 250 252 255 258 258 255 252 252 252 252 252 252 253 255 256 257 257 257 256 257 258 259 261 262 262 263 262 261 259 258 257 256 256 257 260 262 262 263 262 261 262 262 263 263 263 263 263 265 270 274 275 277 281 284 287 289 290 290 288 285 280 277 279 281 282 285 287 287 285 285 285 285 286 286
236 239 241 242 244 246 246 245 246 247 247 247 247 248 251 255 257 254 252 251 251 252 252 252 253 255 256 257 258 258 257 258 259 261 261 261 261 261 261 261 259 258 257 257 259 261 262 261 262 262 262 263 264 264 267 270 271 269 268 271 274 275 275 277 279 281 284 285 285 286 287 286 284 281 277 277 281 285 287 286 283 282 282 284 285
239 241 243 244 244 246 246 246 246 246 247 249 251 249 248 249 251 250 248 247 247 250 253 254 254 254 255 256 257 258 258 258 258 259 259 259 259 259 261 261 261 259 258 257 258 260 260 261 261 261 262 264 264 266 269 272 274 274 274 275 278 280 280 280 280 283 285 284 282 282 283 282 283 283 281 279 278 279 283 284 282 280 281 282 283
241 244 247 249 248 248 248 249 249 248 248 251 253 254 252 251 250 250 250 248 246 246 251 255 256 255 254 254 253 254 255 256 256 257 258 260 260 260 261 261 262 262 260 259 260 262 262 261 259 259 260 260 261 264 267 269 273 275 277 279 281 281 281 281 283 287 289 287 284 281 279 276 277 280 282 281 278 275 275 277 279 280 282 283 283
249 251 253 253 253 251 249 250 250 251 250 250 253 254 254 254 254 252 252 252 250 247 247 250 254 254 253 251 249 248 251 252 251 254 257 259 260 260 260 260 260 260 260 260 261 264 264 261 260 260 260 260 261 262 264 267 269 271 274 277 279 280 281 281 283 286 287 287 285 282 279 276 274 276 279 278 277 274 272 275 279 283 284 283 283
253 254 254 253 252 250 249 248 249 250 250 251 253 253 251 254 256 253 251 252 252 250 248 249 253 253 251 249 248 247 249 250 250 251 254 256 257 258 257 258 258 259 260 260 259 260 260 259 260 260 260 261 262 262 264 267 268 269 271 273 275 279 281 282 284 286 288 289 287 284 280 275 271 272 274 273 273 272 272 273 278 283 286 286 282
251 253 253 252 251 249 248 248 247 247 247 247 248 249 248 250 253 252 250 251 251 250 251 253 254 252 249 248 247 247 249 251 252 252 254 256 258 259 258 258 259 260 261 262 262 262 261 261 262 261 261 263 264 265 267 269 271 273 274 275 276 278 279 281 284 285 287 290 290 286 282 277 273 270 267 267 268 269 269 270 273 278 283 284 282
245 249 251 252 252 250 249 247 246 246 246 244 244 246 247 248 250 250 250 251 251 248 248 251 252 250 248 247 247 247 249 253 254 255 257 259 262 263 263 263 263 264 266 267 267 265 264 264 264 265 266 267 268 269 270 271 274 276 276 276 276 275 276 279 280 282 287 290 289 287 284 281 276 270 265 264 265 266 266 267 270 274 277 278 280
232 240 250 250 246 249 251 249 245 243 243 243 243 245 246 246 247 248 248 251 254 250 246 247 248 248 248 248 248 248 250 253 256 258 260 263 264 265 265 265 265 266 267 269 269 268 266 265 264 265 267 267 268 269 270 272 274 275 276 277 277 276 277 278 279 282 287 288 287 287 286 281 275 269 265 263 264 265 265 266 268 270 271 273 276
222 226 248 251 242 249 257 254 245 239 238 239 241 242 243 243 246 247 247 249 253 251 250 249 248 247 248 249 249 250 252 256 259 260 261 262 262 262 263 264 264 265 266 268 270 270 269 267 266 265 266 267 269 270 272 274 275 275 276 277 278 279 280 280 282 285 287 287 288 288 286 281 275 269 265 263 263 264 265 265 266 266 267 272 278
222 222 233 249 253 257 261 260 252 244 241 242 242 241 239 240 242 245 247 249 252 252 252 251 248 247 249 250 250 251 254 258 259 258 257 256 256 257 258 259 260 262 264 266 268 269 269 269 268 267 267 268 270 271 273 276 277 277 278 278 279 281 281 282 285 286 286 287 284 276 274 279 279 272 266 263 262 262 263 264 264 264 266 271 275
230 232 237 243 247 249 252 258 259 247 242 246 245 241 241 243 244 245 247 251 252 251 250 250 250 250 251 251 249 250 252 254 255 254 252 253 254 256 257 257 257 259 261 263 265 267 269 270 270 270 269 269 270 272 274 276 278 279 279 277 278 279 281 282 284 283 285 287 278 265 267 279 283 276 269 265 263 263 262 263 264 264 264 263 265
243 248 249 245 244 246 250 256 254 238 238 248 247 241 243 242 239 239 241 245 249 250 250 252 253 251 249 247 246 245 246 249 250 251 252 253 255 256 256 257 258 259 261 262 264 266 268 270 271 272 272 272 272 273 274 275 276 276 277 277 278 279 280 280 279 279 283 283 272 265 268 274 277 277 272 267 268 269 267 266 266 265 265 264 265
252 252 250 247 250 257 261 259 245 226 231 242 240 240 252 241 226 232 244 248 250 250 246 245 248 247 245 244 243 243 245 248 250 251 252 253 255 256 257 259 260 260 261 263 266 268 269 270 271 272 272 273 273 274 274 275 275 275 275 276 278 279 280 279 276 274 275 272 266 265 266 267 271 275 275 277 280 279 276 274 271 267 265 265 267
253 253 250 246 250 257 260 256 244 231 234 243 241 237 244 244 232 232 241 243 241 237 235 238 247 252 251 250 249 250 251 253 254 254 255 256 258 259 260 262 262 263 263 264 266 268 270 271 272 272 272 272 272 273 273 274 275 275 276 276 277 278 278 278 275 271 266 263 262 263 264 268 275 279 281 283 284 280 278 278 276 272 270 268 269
251 251 249 245 245 249 251 250 246 243 244 249 249 242 238 239 237 233 234 237 239 240 242 248 256 260 260 259 259 260 260 260 260 260 261 262 263 264 265 266 266 267 268 268 268 268 269 270 271 271 272 272 273 273 273 274 275 275 276 276 277 277 277 276 275 273 269 268 268 269 270 275 281 283 284 285 284 281 280 278 277 276 275 272 271
251 249 248 245 243 244 247 250 253 256 256 255 254 251 246 246 247 246 246 248 251 252 253 255 259 261 262 263 263 263 263 263 263 264 265 266 267 268 269 269 270 270 271 271 271 271 271 270 270 270 271 271 271 272 272 273 274 274 275 276 276 276 276 275 274 273 272 273 275 277 279 282 285 285 284 284 283 282 280 277 275 275 273 271 270
253 252 252 253 253 254 257 261 263 263 263 259 257 257 256 255 256 257 258 259 261 262 263 263 264 264 265 264 264 264 264 265 265 266 267 268 269 270 271 272 272 272 272 273 272 272 272 272 271 271 271 271 271 271 271 271 272 273 274 275 275 275 275 274 273 273 273 273 275 278 281 283 284 284 283 282 281 279 276 273 273 272 271 270 269
259 259 259 260 261 263 266 269 270 271 270 268 266 265 265 264 264 264 265 265 266 267 268 268 268 268 267 267 267 266 266 266 266 267 268 268 269 270 271 271 272 273 273 274 273 273 273 272 272 272 272 272 272 272 272 272 272 273 273 274 274 275 275 275 274 274 273 274 274 276 278 280 281 281 281 281 280 277 275 272 271 271 271 270 269
259 261 262 262 263 264 266 269 271 272 273 272 271 270 268 268 268 268 269 269 269 270 271 271 272 272 271 271 271 271 271 270 270 270 270 270 270 271 271 272 272 272 273 273 273 273 273 273 273 273 273 273 273 272 273 273 273 273 274 274 274 274 274 275 275 275 274 274 274 275 276 277 278 278 279 279 279 277 275 273 271 270 270 270 270
256 257 259 260 260 262 262 263 265 267 268 269 270 271 271 271 271 271 271 272 272 273 274 274 275 275 276 276 277 277 277 276 276 275 275 275 274 274 274 274 274 274 274 273 273 273 273 273 273 273 273 273 273 273 273 274 274 274 274 274 275 275 275 275 275 275 275 275 275 275 275 276 276 277 278 278 278 277 276 275 274 272 271 270 269
257 258 259 260 262 263 264 265 266 268 269 270 272 274 275 276 276 276 276 275 276 276 277 277 278 278 279 279 280 280 280 280 280 280 280 280 280 279 279 279 279 278 278 278 278 277 277 277 276 276 276 276 276 275 275 275 275 275 275 275 275 276 276 276 276 276 276 276 276 276 276 277 277 277 278 278 278 278 277 277 276 275 274 272 271
261 263 264 266 267 268 269 271 272 274 275 275 276 277 278 279 281 281 282 281 281 281 281 281 281 281 281 281 281 281 281 281 282 282 282 282 282 282 282 282 282 282 282 282 281 281 281 281 281 281 281 280 280 280 279 279 278 278 278 277 277 277 277 277 277 277 277 277 277 277 277 277 277 277 277 277 277 277 277 276 276 275 274 273 273
264 266 267 268 270 272 273 274 275 277 278 279 280 281 281 282 282 282 283 283 283 283 283 283 283 282 282 281 281 281 280 281 281 281 281 281 281 281 281 281 281 281 281 281 281 281 281 281 281 281 282 282 282 281 281 281 281 280 280 279 279 279 278 277 277 277 277 277 277 277 277 276 276 276 276 275 275 275 275 274 274 274 273 273 273
266 267 269 270 271 272 273 275 276 277 278 279 280 280 281 282 282 282 283 283 283 282 282 282 282 282 282 281 281 281 280 280 280 280 280 280 280 280 280 280 280 280 280 280 280 280 280 280 280 280 281 281 281 281 281 281 281 280 280 280 279 279 279 278 278 277 277 277 276 276 276 276 276 276 276 275 275 274 274 273 273 273 272 272 272
269 270 271 272 273 274 275 276 277 278 279 279 280 281 281 282 282 283 283 283 283 283 283 282 282 282 282 282 282 282 281 281 281 281 281 280 280 280 280 280 280 280 280 280 280 280 280 280 280 280 280 280 280 280 280 280 280 280 280 280 280 279 279 279 278 278 278 277 277 277 276 276 276 276 276 276 276 276 275 275 274 273 273 272 272
278 278 279 279 280 280 280 281 281 281 282 282 282 283 283 283 283 283 283 283 283 283 283 283 282 282 281 281 281 281 281 281 281 281 280 280 280 280 280 280 280 279 279 280 280 280 280 280 280 280 280 280 280 280 280 280 280 280 280 280 280 279 279 279 279 278 278 278 277 277 277 276 276 276 276 276 276 276 276 276 275 275 274 274 273
284 285 285 285 285 285 285 286 285 285 285 285 284 284 284 284 284 283 283 283 283 283 283 283 282 282 282 281 281 281 281 281 280 280 280 279 279 278 278 278 278 278 279 278 278 278 279 279 279 279 279 279 279 279 279 280 280 280 279 279 279 279 279 278 278 278 278 278 277 277 277 276 276 276 276 276 275 275 275 275 275 275 274 274 273
285 286 287 287 288 288 289 289 289 288 288 288 288 287 287 287 287 287 286 286 286 285 285 285 284 283 283 283 282 282 281 281 281 281 280 280 279 279 278 278 278 277 277 277 277 277 277 277 277 277 277 277 277 278 278 278 278 278 279 279 278 278 278 278 278 278 278 278 277 277 277 276 276 276 276 275 275 275 275 274 274 274 274 274 274
285 286 287 288 289 289 289 290 290 290 291 291 291 291 291 291 292 292 291 291 291 290 290 289 288 288 287 286 286 285 284 283 282 282 281 281 280 279 279 279 278 278 277 276 276 276 276 276 275 275 275 276 276 275 276 276 276 276 277 277 277 277 277 277 278 278 278 278 278 277 277 277 277 276 276 276 276 275 275 275 275 274 274 274 274
285 285 286 286 287 288 288 289 289 290 290 291 291 292 292 293 293 293 293 293 293 292 292 291 291 290 290 289 288 287 286 285 284 283 282 281 280 280 279 278 278 277 277 276 276 275 275 275 274 274 274 274 274 274 274 274 274 274 274 274 274 275 275 276 276 276 277 277 277 277 277 277 277 277 277 276 276 276 276 275 275 275 275 275 274
288 288 289 289 290 290 290 290 290 290 290 291 291 292 292 293 293 293 293 293 292 292 291 291 290 290 290 289 288 288 287 286 285 284 283 282 282 281 280 279 277 277 276 275 274 273 273 273 273 273 273 273 273 273 273 273 273 273 273 273 273 273 274 274 274 274 275 276 276 277 277 278 278 278 278 277 277 277 276 276 275 275 274 274 274
291 292 292 292 292 292 292 291 291 292 292 292 292 292 292 292 292 292 292 291 291 291 291 290 290 290 289 289 288 287 287 286 285 284 284 283 283 282 281 280 279 277 276 275 274 273 272 271 271 271 271 271 271 271 271 271 272 272 272 273 273 273 274 274 274 274 274 275 275 275 276 276 276 277 277 277 277 277 277 276 276 275 274 274 273
293 293 293 293 293 292 292 293 293 293 293 293 293 293 293 293 293 292 292 292 292 292 292 292 291 290 289 289 288 287 286 286 286 286 286 285 285 284 283 281 279 277 276 274 273 272 271 271 270 270 269 269 268 269 269 270 270 271 271 272 272 273 273 274 274 275 275 275 275 275 275 275 275 275 276 276 276 276 276 276 276 276 275 274 274
296 296 296 296 296 296 296 296 296 295 295 295 295 295 295 295 295 295 295 295 295 295 294 293 292 291 289 288 288 288 288 289 289 290 291 291 290 289 286 283 281 278 276 274 272 271 270 270 270 270 270 269 269 269 269 269 269 270 271 271 272 273 273 273 273 274 274 275 275 276 276 276 276 276 276 276 276 276 276 276 276 275 275 275 275
299 299 299 299 299 299 299 299 299 299 298 298 298 297 297 297 298 298 298 298 297 296 295 294 292 291 290 289 290 291 292 293 293 294 295 296 296 295 292 290 288 285 281 277 274 272 271 271 272 273 273 272 272 271 271 271 271 271 271 271 272 273 273 272 272 273 273 274 274 275 275 276 276 276 276 276 276 276 276 276 276 276 276 276 276
301 301 301 302 302 302 302 302 302 301 300 300 299 299 299 299 299 299 299 298 298 297 295 294 292 290 289 290 292 294 295 295 295 295 296 297 298 297 295 295 294 292 286 280 275 273 272 273 274 275 273 272 271 272 273 274 275 274 274 274 274 274 274 274 274 274 273 272 272 272 273 273 274 275 275 275 276 276 276 277 277 278 277 277 277
303 304 304 305 305 304 304 303 302 301 301 300 299 299 300 300 300 300 299 299 298 297 296 294 292 290 290 291 293 295 296 296 295 295 296 296 296 296 295 296 296 293 287 279 274 273 274 273 270 269 268 268 270 272 274 276 277 277 275 274 273 272 271 270 269 269 269 268 268 269 270 271 272 273 273 274 274 275 276 277 277 277 277 277 277
306 307 306 306 306 305 304 303 302 301 301 300 300 301 301 301 301 300 300 299 298 297 295 293 291 290 291 293 294 296 296 296 295 295 295 296 296 296 296 296 294 290 285 276 269 267 269 270 268 268 270 273 275 274 273 272 272 272 271 269 267 265 263 261 259 259 261 263 265 268 270 271 272 272 272 272 273 274 275 276 276 277 277 278 278
307 307 307 306 306 305 304 303 303 302 302 302 302 302 302 302 302 301 301 300 299 297 294 292 291 291 292 293 295 296 296 295 295 295 295 296 297 298 297 294 289 286 283 278 270 264 263 266 269 273 276 277 275 272 269 267 264 264 266 266 264 263 265 267 267 266 266 267 268 269 269 270 271 272 273 273 275 275 276 276 277 278 279 279 279
Height
5928 5929 5930 5931 5933 5934 5935 5936 5937 5937 5938 5938 5939 5940 5941 5942 5943 5943 5944 5944 5945 5945 5945 5945 5946 5946 5947 5947 5947 5948 5948 5948 5949 5949 5949 5949 5949 5949 5950 5950 5950 5950 5950 5950 5950 5950 5950 5950 5950 5950 5950 5949 5949 5949 5948 5948 5947 5947 5946 5946 5946 5945 5945 5944 5944 5943 5942 5942 5941 5941 5940 5939 5939 5939 5938 5937 5937 5936 5935 5934 5933 5933 5932 5932 5931
5927 5928 5929 5930 5931 5932 5934 5935 5935 5936 5936 5937 5938 5939 5940 5941 5941 5942 5943 5943 5944 5944 5944 5945 5945 5945 5946 5946 5946 5947 5947 5947 5948 5948 5948 5948 5948 5949 5949 5948 5948 5949 5949 5949 5949 5949 5949 5949 5949 5949 5949 5949 5948 5948 5948 5947 5947 5946 5946 5945 5945 5944 5944 5943 5943 5943 5942 5941 5940 5940 5939 5939 5938 5938 5937 5937 5936 5935 5934 5933 5933 5932 5931 5931 5930
5925 5927 5928 5929 5930 5931 5933 5933 5934 5934 5935 5936 5937 5937 5938 5939 5939 5940 5941 5942 5942 5943 5943 5943 5944 5944 5945 5945 5945 5946 5946 5946 5946 5947 5947 5947 5947 5947 5947 5947 5947 5947 5948 5948 5948 5948 5948 5948 5948 5948 5948 5948 5947 5947 5947 5946 5946 5945 5945 5944 5944 5943 5943 5942 5942 5941 5941 5940 5940 5939 5938 5938 5937 5936 5936 5936 5935 5934 5934 5933 5932 5931 5931 5930 5929
5923 5925 5926 5927 5929 5930 5931 5932 5933 5933 5933 5934 5935 5936 5936 5937 5937 5938 5939 5940 5940 5941 5941 5942 5942 5943 5943 5944 5944 5944 5944 5944 5945 5945 5945 5946 5946 5946 5946 5946 5946 5946 5946 5946 5946 5946 5946 5946 5946 5946 5946 5946 5946 5946 5945 5945 5944 5944 5943 5943 5943 5942 5942 5941 5941 5940 5940 5939 5939 5938 5937 5936 5935 5935 5934 5934 5934 5933 5932 5932 5931 5930 5930 5929 5928
5921 5922 5924 5925 5927 5928 5929 5930 5931 5931 5932 5932 5933 5934 5935 5935 5935 5936 5937 5937 5938 5939 5939 5940 5940 5941 5941 5942 5942 5943 5943 5943 5943 5944 5944 5944 5944 5944 5944 5944 5944 5944 5944 5945 5944 5944 5945 5945 5944 5944 5944 5944 5944 5944 5944 5943 5943 5942 5942 5941 5941 5941 5940 5940 5939 5939 5938 5938 5938 5937 5936 5935 5934 5933 5933 5932 5932 5931 5931 5930 5930 5929 5928 5927 5927
5918 5919 5921 5922 5924 5925 5926 5927 5928 5929 5929 5930 5931 5932 5933 5933 5934 5934 5935 5935 5936 5937 5937 5938 5938 5939 5940 5940 5941 5941 5941 5942 5942 5942 5943 5943 5943 5943 5943 5943 5943 5943 5943 5943 5943 5942 5942 5942 5942 5942 5942 5942 5942 5942 5941 5941 5941 5940 5940 5940 5939 5939 5939 5938 5938 5937 5937 5936 5936 5936 5935 5935 5934 5932 5931 5931 5930 5930 5929 5929 5928 5927 5926 5926 5925
5915 5916 5918 5919 5921 5922 5923 5924 5924 5925 5926 5927 5928 5930 5931 5931 5932 5932 5933 5933 5934 5934 5935 5936 5936 5937 5938 5938 5939 5939 5940 5940 5940 5941 5941 5941 5941 5942 5942 5942 5941 5941 5941 5941 5940 5940 5940 5940 5939 5939 5939 5939 5939 5939 5939 5939 5939 5939 5939 5938 5938 5937 5937 5936 5936 5935 5935 5935 5935 5934 5934 5934 5933 5931 5930 5929 5929 5928 5928 5927 5927 5926 5925 5924 5923
5912 5913 5915 5916 5917 5918 5919 5920 5921 5921 5922 5923 5924 5926 5927 5929 5929 5930 5930 5931 5931 5932 5933 5934 5934 5935 5935 5936 5936 5937 5937 5938 5938 5939 5939 5940 5940 5941 5941 5941 5941 5941 5940 5940 5939 5938 5938 5938 5937 5937 5937 5937 5937 5936 5936 5937 5937 5937 5937 5937 5936 5936 5935 5935 5934 5934 5934 5934 5934 5933 5932 5931 5931 5930 5929 5927 5927 5926 5925 5925 5925 5924 5924 5923 5922
5910 5911 5912 5914 5914 5915 5916 5917 5918 5918 5919 5920 5921 5923 5924 5925 5926 5927 5928 5928 5929 5930 5931 5932 5932 5933 5933 5934 5934 5934 5935 5936 5936 5936 5936 5938 5938 5939 5939 5938 5938 5938 5938 5938 5939 5938 5937 5936 5936 5936 5936 5935 5935 5935 5935 5935 5935 5934 5934 5934 5933 5933 5933 5933 5933 5932 5932 5932 5932 5931 5930 5929 5928 5928 5927 5926 5925 5924 5923 5922 5922 5922 5921 5921 5921
5908 5909 5910 5911 5911 5912 5913 5915 5916 5917 5918 5919 5920 5921 5921 5922 5923 5924 5925 5926 5927 5928 5928 5929 5930 5930 5930 5931 5931 5931 5932 5933 5933 5932 5933 5933 5934 5935 5935 5935 5935 5935 5934 5935 5936 5936 5935 5934 5934 5934 5935 5934 5933 5933 5933 5932 5931 5931 5931 5931 5931 5931 5931 5931 5930 5930 5929 5929 5929 5928 5927 5926 5925 5926 5926 5926 5923 5922 5921 5920 5919 5919 5919 5918 5918
5904 5906 5907 5908 5909 5910 5911 5913 5914 5915 5916 5918 5919 5920 5920 5921 5921 5922 5923 5923 5924 5925 5926 5926 5926 5926 5927 5927 5927 5928 5930 5930 5929 5929 5930 5930 5930 5932 5932 5932 5932 5932 5932 5933 5933 5932 5932 5931 5931 5932 5932 5932 5932 5932 5930 5929 5929 5929 5929 5930 5930 5929 5929 5929 5928 5927 5927 5926 5926 5925 5924 5923 5922 5922 5924 5925 5923 5920 5919 5918 5917 5916 5916 5916 5916
5901 5903 5904 5905 5906 5907 5908 5910 5911 5912 5914 5915 5915 5916 5918 5919 5919 5920 5920 5921 5921 5922 5922 5923 5923 5922 5923 5923 5924 5925 5927 5926 5926 5927 5927 5927 5927 5928 5928 5928 5929 5929 5929 5929 5929 5929 5928 5928 5928 5928 5928 5929 5930 5929 5927 5926 5926 5927 5927 5927 5927 5927 5926 5926 5926 5925 5925 5924 5924 5923 5921 5921 5920 5919 5920 5921 5921 5919 5917 5915 5914 5913 5913 5912 5913
5899 5900 5901 5902 5903 5904 5905 5906 5908 5909 5910 5911 5911 5912 5913 5915 5916 5916 5916 5916 5916 5917 5918 5919 5920 5920 5921 5921 5921 5922 5923 5922 5923 5924 5924 5924 5924 5924 5924 5925 5925 5925 5925 5925 5925 5925 5925 5925 5924 5924 5925 5925 5926 5926 5924 5924 5924 5924 5924 5923 5923 5923 5922 5922 5922 5922 5922 5922 5921 5920 5919 5918 5917 5916 5916 5917 5916 5916 5916 5914 5911 5910 5909 5909 5909
5896 5897 5897 5898 5899 5900 5901 5902 5904 5906 5907 5907 5908 5909 5909 5910 5910 5911 5911 5911 5911 5912 5913 5915 5916 5917 5917 5917 5918 5919 5920 5919 5919 5920 5920 5920 5921 5921 5921 5921 5921 5922 5922 5921 5921 5921 5921 5921 5921 5921 5921 5922 5922 5922 5922 5922 5921 5921 5921 5920 5920 5919 5919 5919 5918 5918 5918 5918 5917 5916 5915 5915 5914 5913 5913 5913 5912 5912 5913 5911 5908 5907 5906 5906 5905
5892 5893 5894 5895 5896 5897 5898 5899 5901 5902 5903 5904 5905 5906 5906 5906 5907 5907 5908 5908 5907 5908 5909 5910 5911 5912 5913 5914 5915 5916 5916 5916 5916 5916 5917 5917 5918 5918 5919 5919 5918 5918 5918 5919 5919 5919 5919 5919 5918 5918 5918 5918 5919 5919 5918 5918 5918 5918 5918 5917 5917 5916 5916 5915 5915 5915 5914 5914 5914 5913 5911 5910 5910 5910 5910 5910 5909 5909 5908 5906 5904 5903 5902 5902 5902
5888 5890 5891 5892 5893 5893 5895 5895 5897 5899 5901 5902 5902 5902 5902 5903 5903 5904 5905 5904 5904 5905 5905 5905 5906 5907 5908 5909 5911 5912 5912 5912 5913 5913 5914 5914 5915 5915 5915 5915 5915 5915 5915 5915 5916 5916 5917 5916 5915 5915 5915 5914 5915 5915 5914 5914 5914 5914 5914 5913 5913 5912 5912 5912 5912 5911 5910 5909 5909 5909 5907 5905 5906 5907 5906 5906 5906 5906 5905 5903 5901 5900 5899 5899 5899
5885 5885 5886 5887 5888 5888 5889 5891 5892 5894 5896 5897 5898 5898 5898 5898 5898 5900 5901 5901 5901 5902 5902 5902 5902 5903 5904 5905 5907 5908 5909 5909 5910 5910 5911 5911 5911 5911 5912 5912 5911 5911 5911 5912 5911 5911 5912 5912 5911 5911 5911 5910 5910 5910 5909 5909 5909 5910 5910 5909 5909 5909 5908 5908 5908 5906 5905 5904 5903 5903 5903 5902 5902 5902 5902 5901 5901 5901 5901 5900 5898 5897 5897 5896 5896
5881 5881 5882 5883 5883 5883 5884 5886 5887 5889 5890 5892 5894 5894 5894 5893 5892 5894 5897 5898 5898 5898 5899 5900 5900 5900 5901 5902 5903 5905 5905 5906 5906 5906 5907 5907 5907 5907 5907 5907 5908 5908 5908 5908 5908 5907 5907 5907 5907 5907 5906 5906 5906 5906 5906 5905 5905 5905 5905 5905 5905 5904 5903 5903 5903 5902 5900 5899 5898 5897 5897 5897 5897 5897 5897 5896 5895 5895 5896 5895 5894 5894 5894 5894 5893
5878 5878 5879 5879 5879 5879 5880 5881 5882 5883 5884 5887 5888 5888 5889 5888 5888 5889 5891 5893 5894 5895 5895 5896 5896 5896 5897 5898 5900 5901 5901 5902 5902 5902 5902 5903 5903 5903 5903 5903 5903 5904 5904 5904 5904 5903 5903 5903 5903 5902 5901 5902 5902 5902 5901 5901 5901 5900 5900 5900 5900 5900 5899 5898 5898 5898 5896 5894 5893 5892 5891 5890 5890 5890 5890 5890 5890 5890 5890 5890 5889 5890 5890 5889 5888
5875 5876 5875 5874 5874 5874 5875 5875 5876 5877 5879 5880 5880 5881 5883 5883 5882 5883 5886 5888 5889 5889 5889 5890 5891 5892 5894 5895 5896 5897 5897 5897 5898 5898 5898 5898 5898 5898 5898 5899 5899 5899 5899 5899 5898 5898 5898 5898 5899 5898 5896 5896 5897 5896 5896 5896 5896 5896 5895 5895 5895 5894 5894 5894 5893 5892 5891 5889 5887 5887 5886 5884 5883 5883 5884 5884 5885 5886 5885 5885 5885 5885 5885 5884 5883
5871 5873 5871 5869 5869 5870 5871 5870 5870 5870 5872 5872 5872 5874 5875 5875 5876 5878 5881 5883 5883 5883 5884 5886 5887 5889 5890 5891 5891 5892 5892 5893 5894 5894 5894 5894 5894 5894 5894 5894 5894 5894 5894 5894 5894 5894 5894 5893 5893 5893 5891 5891 5891 5891 5891 5891 5891 5891 5891 5890 5889 5889 5888 5888 5888 5887 5886 5884 5883 5883 5881 5879 5877 5877 5878 5879 5880 5880 5880 5879 5880 5881 5880 5879 5878
5868 5869 5867 5865 5865 5866 5866 5865 5865 5865 5865 5866 5866 5867 5868 5869 5871 5874 5876 5878 5878 5879 5880 5882 5883 5884 5886 5886 5886 5887 5888 5889 5889 5889 5889 5889 5890 5890 5890 5890 5890 5890 5890 5890 5890 5890 5890 5889 5889 5888 5887 5887 5886 5886 5885 5885 5885 5886 5886 5885 5884 5883 5882 5882 5882 5882 5881 5880 5880 5879 5877 5875 5873 5872 5872 5873 5874 5875 5875 5875 5875 5876 5875 5875 5873
5864 5864 5864 5863 5863 5863 5863 5862 5861 5862 5862 5862 5863 5863 5863 5864 5866 5869 5872 5873 5874 5875 5876 5878 5879 5880 5881 5881 5882 5883 5884 5884 5885 5885 5885 5885 5885 5886 5886 5886 5886 5886 5886 5886 5886 5886 5885 5885 5885 5884 5884 5883 5882 5881 5881 5880 5880 5880 5880 5880 5880 5878 5878 5877 5877 5876 5876 5876 5875 5874 5873 5871 5869 5868 5868 5869 5869 5870 5870 5871 5871 5871 5871 5870 5868
5860 5861 5861 5861 5861 5860 5860 5860 5860 5860 5860 5860 5861 5861 5860 5860 5862 5865 5868 5870 5871 5871 5872 5874 5875 5875 5876 5877 5877 5878 5879 5879 5880 5880 5880 5881 5881 5881 5881 5881 5882 5882 5882 5882 5881 5881 5881 5880 5880 5880 5880 5879 5878 5878 5877 5876 5876 5876 5876 5875 5875 5874 5873 5873 5872 5872 5872 5872 5871 5869 5868 5867 5866 5865 5865 5865 5865 5865 5866 5867 5867 5867 5866 5865 5864
5857 5858 5858 5858 5858 5858 5858 5858 5858 5858 5858 5859 5860 5860 5860 5861 5862 5864 5866 5867 5868 5869 5869 5870 5870 5871 5871 5872 5873 5873 5874 5874 5875 5875 5876 5876 5876 5877 5877 5877 5877 5877 5877 5877 5877 5876 5876 5876 5876 5875 5875 5875 5874 5874 5873 5872 5872 5872 5871 5871 5870 5870 5869 5868 5868 5868 5868 5867 5865 5864 5863 5862 5862 5861 5861 5861 5861 5861 5861 5861 5861 5861 5860 5859 5858
5853 5854 5855 5855 5856 5856 5856 5857 5857 5857 5857 5858 5859 5860 5860 5860 5861 5862 5863 5863 5864 5865 5865 5866 5866 5867 5867 5868 5868 5869 5869 5870 5870 5871 5872 5872 5872 5872 5872 5872 5873 5873 5872 5872 5872 5872 5871 5871 5871 5871 5870 5870 5870 5869 5869 5868 5867 5867 5867 5866 5866 5865 5864 5863 5863 5863 5863 5861 5860 5858 5857 5856 5856 5856 5856 5856 5856 5856 5855 5855 5855 5854 5854 5853 5852
5851 5851 5852 5852 5853 5854 5854 5855 5855 5856 5856 5856 5857 5858 5858 5858 5859 5859 5860 5860 5861 5862 5862 5863 5863 5863 5864 5865 5865 5865 5866 5866 5867 5867 5867 5867 5868 5868 5868 5868 5868 5867 5867 5867 5867 5867 5866 5866 5865 5865 5865 5865 5865 5864 5863 5863 5862 5861 5861 5861 5860 5860 5859 5858 5858 5857 5857 5856 5854 5853 5852 5851 5851 5850 5850 5850 5850 5850 5850 5849 5849 5848 5848 5847 5846
5848 5849 5849 5850 5851 5851 5851 5852 5853 5854 5854 5855 5855 5855 5856 5857 5857 5858 5858 5858 5859 5859 5860 5860 5860 5861 5861 5862 5862 5862 5862 5863 5863 5863 5863 5863 5863 5863 5863 5862 5862 5862 5862 5862 5861 5861 5861 5860 5860 5860 5860 5859 5859 5859 5858 5857 5857 5856 5855 5855 5855 5854 5854 5853 5853 5852 5851 5849 5848 5847 5846 5845 5845 5845 5844 5844 5844 5844 5844 5843 5842 5842 5842 5841 5840
5846 5847 5847 5848 5848 5849 5849 5850 5850 5851 5852 5852 5853 5853 5854 5854 5855 5855 5855 5856 5856 5856 5857 5857 5857 5857 5858 5858 5858 5858 5859 5858 5858 5858 5858 5858 5858 5857 5857 5857 5857 5856 5856 5856 5855 5855 5855 5855 5854 5854 5853 5853 5853 5853 5852 5852 5851 5850 5850 5849 5849 5848 5848 5848 5847 5846 5845 5844 5842 5841 5840 5839 5839 5838 5838 5838 5838 5838 5837 5837 5836 5835 5835 5834 5834
5845 5845 5846 5846 5846 5846 5846 5846 5847 5847 5848 5848 5849 5850 5850 5851 5851 5852 5852 5852 5853 5853 5853 5853 5853 5853 5853 5853 5854 5854 5854 5854 5853 5853 5853 5852 5852 5852 5852 5851 5851 5850 5850 5850 5849 5849 5848 5848 5848 5847 5847 5846 5846 5846 5845 5845 5845 5844 5844 5843 5843 5842 5841 5841 5841 5840 5839 5838 5837 5836 5835 5834 5833 5832 5832 5831 5831 5831 5830 5830 5829 5829 5828 5828 5827
5843 5843 5843 5844 5844 5844 5844 5844 5844 5844 5844 5844 5845 5846 5846 5847 5847 5847 5848 5848 5848 5848 5848 5848 5848 5848 5848 5848 5848 5848 5848 5848 5848 5848 5847 5847 5846 5846 5846 5845 5845 5844 5844 5843 5843 5842 5842 5841 5841 5841 5840 5840 5839 5839 5838 5838 5837 5837 5837 5836 5836 5835 5835 5834 5833 5833 5832 5831 5831 5830 5829 5828 5827 5826 5825 5825 5824 5824 5823 5823 5822 5822 5821 5821 5820
5840 5840 5840 5841 5841 5841 5841 5841 5841 5841 5841 5841 5841 5842 5842 5843 5843 5843 5843 5844 5843 5843 5844 5843 5843 5843 5843 5842 5842 5842 5842 5841 5841 5841 5841 5840 5840 5840 5839 5839 5838 5838 5837 5837 5836 5836 5835 5835 5834 5833 5833 5833 5832 5832 5831 5830 5830 5829 5829 5828 5828 5827 5827 5826 5826 5825 5824 5823 5823 5822 5821 5821 5820 5819 5818 5817 5816 5816 5816 5815 5815 5815 5814 5814 5813
5837 5837 5837 5838 5838 5838 5838 5838 5838 5838 5838 5838 5838 5838 5838 5838 5838 5839 5839 5839 5839 5839 5838 5838 5838 5837 5837 5836 5836 5836 5835 5835 5834 5834 5834 5833 5833 5833 5832 5832 5831 5831 5830 5829 5829 5828 5827 5827 5826 5826 5825 5824 5824 5824 5823 5822 5822 5821 5821 5820 5820 5819 5819 5818 5817 5817 5816 5815 5815 5814 5813 5813 5812 5811 5810 5809 5809 5808 5807 5807 5807 5806 5806 5806 5806
5834 5834 5834 5835 5835 5835 5835 5835 5835 5835 5835 5835 5835 5835 5834 5834 5834 5834 5834 5834 5834 5833 5833 5833 5832 5832 5831 5831 5830 5830 5829 5829 5828 5827 5827 5826 5826 5825 5825 5824 5823 5823 5822 5821 5821 5820 5819 5818 5817 5817 5816 5815 5815 5814 5814 5813 5813 5812 5812 5811 5811 5811 5810 5809 5809 5808 5808 5807 5806 5806 5805 5804 5803 5802 5802 5801 5800 5800 5799 5799 5798 5798 5797 5797 5797
5831 5831 5831 5831 5832 5832 5832 5832 5832 5832 5831 5831 5831 5831 5831 5830 5830 5830 5829 5829 5828 5828 5828 5827 5827 5826 5826 5825 5824 5824 5823 5822 5822 5821 5820 5820 5819 5818 5818 5817 5816 5815 5815 5814 5813 5812 5812 5811 5810 5809 5808 5807 5807 5806 5805 5805 5804 5803 5803 5802 5802 5801 5801 5800 5800 5799 5799 5799 5798 5797 5797 5796 5795 5794 5793 5793 5792 5791 5791 5790 5790 5789 5789 5788 5788
5828 5828 5828 5828 5828 5829 5829 5829 5829 5828 5828 5828 5828 5827 5827 5826 5826 5825 5825 5824 5824 5823 5823 5822 5821 5820 5819 5818 5818 5817 5817 5816 5815 5814 5813 5812 5812 5811 5810 5809 5808 5807 5806 5806 5805 5804 5803 5803 5802 5801 5800 5799 5798 5798 5797 5796 5795 5795 5794 5793 5793 5792 5792 5791 5791 5790 5790 5789 5789 5788 5787 5787 5786 5785 5784 5784 5783 5783 5782 5782 5781 5780 5780 5779 5779
5824 5824 5825 5825 5825 5825 5825 5825 5825 5825 5824 5824 5824 5823 5823 5822 5822 5821 5820 5819 5818 5817 5817 5816 5815 5814 5813 5812 5811 5810 5809 5808 5808 5807 5806 5805 5804 5803 5801 5801 5800 5799 5798 5797 5796 5795 5794 5793 5793 5792 5791 5790 5789 5788 5787 5787 5786 5786 5785 5784 5783 5783 5782 5782 5781 5780 5780 5779 5779 5778 5777 5777 5776 5775 5775 5774 5773 5773 5772 5772 5771 5771 5771 5770 5769
5820 5820 5821 5821 5821 5821 5821 5821 5821 5821 5820 5820 5820 5819 5818 5817 5817 5816 5815 5814 5813 5811 5810 5809 5808 5807 5806 5806 5804 5803 5802 5801 5800 5798 5797 5796 5795 5794 5793 5792 5791 5790 5789 5788 5787 5786 5785 5784 5783 5782 5781 5780 5779 5778 5778 5777 5777 5776 5775 5775 5774 5773 5772 5772 5771 5770 5769 5769 5769 5768 5767 5767 5766 5766 5765 5764 5764 5763 5763 5762 5762 5761 5761 5760 5760
5816 5816 5816 5816 5816 5816 5816 5816 5816 5816 5815 5815 5814 5814 5813 5812 5811 5810 5809 5808 5807 5805 5804 5802 5801 5799 5798 5798 5797 5795 5795 5793 5791 5789 5788 5786 5785 5785 5784 5782 5781 5780 5779 5778 5777 5776 5775 5774 5773 5772 5771 5770 5769 5768 5768 5767 5766 5766 5765 5764 5764 5763 5762 5761 5761 5760 5759 5759 5758 5757 5757 5757 5756 5756 5755 5755 5754 5754 5753 5753 5752 5752 5751 5751 5750
5813 5812 5812 5812 5812 5811 5811 5811 5810 5809 5809 5808 5808 5807 5806 5805 5804 5803 5802 5801 5799 5798 5796 5795 5792 5790 5790 5789 5788 5786 5785 5784 5782 5780 5778 5776 5774 5774 5773 5772 5771 5770 5769 5768 5767 5766 5765 5764 5763 5762 5761 5760 5759 5758 5757 5757 5755 5755 5754 5753 5752 5752 5751 5751 5750 5750 5749 5748 5748 5747 5747 5746 5746 5746 5745 5745 5744 5744 5744 5743 5743 5742 5742 5741 5741
5809 5809 5808 5808 5807 5807 5806 5805 5804 5803 5802 5802 5801 5800 5799 5797 5796 5795 5793 5792 5791 5789 5787 5786 5783 5781 5780 5780 5779 5776 5775 5774 5772 5770 5768 5765 5763 5762 5762 5760 5759 5757 5756 5756 5756 5754 5753 5752 5751 5750 5749 5749 5748 5747 5746 5745 5744 5743 5743 5742 5741 5740 5740 5740 5740 5739 5738 5737 5737 5736 5736 5736 5735 5735 5735 5735 5734 5734 5733 5733 5733 5732 5732 5731 5731
5805 5805 5804 5804 5803 5802 5801 5800 5799 5798 5797 5796 5794 5793 5792 5790 5789 5787 5785 5784 5782 5780 5778 5776 5773 5771 5770 5769 5768 5766 5764 5763 5761 5758 5756 5754 5752 5751 5751 5749 5747 5745 5744 5743 5743 5742 5740 5738 5738 5737 5737 5736 5735 5735 5734 5733 5732 5731 5731 5730 5730 5729 5728 5729 5729 5729 5727 5726 5726 5726 5725 5725 5725 5725 5725 5724 5724 5723 5723 5723 5722 5722 5721 5720 5720
5800 5799 5799 5798 5797 5796 5795 5794 5793 5792 5791 5789 5788 5787 5785 5783 5782 5780 5778 5776 5774 5772 5770 5767 5765 5762 5760 5759 5757 5755 5752 5750 5748 5746 5743 5741 5739 5738 5737 5735 5734 5732 5731 5729 5729 5728 5727 5726 5725 5724 5724 5723 5723 5721 5720 5720 5720 5719 5717 5717 5717 5717 5717 5717 5718 5718 5717 5715 5715 5715 5715 5715 5715 5714 5714 5714 5713 5713 5713 5713 5712 5711 5711 5710 5710
5795 5794 5793 5792 5791 5790 5789 5788 5787 5785 5784 5782 5781 5779 5778 5776 5774 5772 5770 5768 5766 5763 5761 5758 5755 5753 5750 5748 5747 5744 5741 5738 5736 5734 5731 5728 5726 5725 5723 5720 5718 5717 5716 5714 5714 5714 5713 5712 5712 5711 5711 5710 5709 5708 5706 5706 5706 5706 5704 5704 5704 5705 5705 5705 5705 5706 5706 5705 5704 5705 5705 5705 5704 5704 5704 5703 5703 5702 5702 5702 5702 5701 5700 5700 5699
5790 5789 5788 5787 5786 5784 5783 5782 5780 5779 5777 5775 5773 5771 5769 5767 5765 5763 5761 5758 5756 5753 5750 5747 5745 5742 5739 5737 5735 5734 5731 5727 5725 5723 5720 5717 5714 5713 5710 5706 5704 5702 5701 5699 5699 5698 5697 5697 5697 5697 5697 5696 5696 5695 5694 5693 5693 5693 5692 5692 5692 5693 5694 5694 5694 5694 5694 5694 5693 5693 5694 5694 5694 5694 5693 5693 5693 5692 5692 5691 5691 5690 5690 5689 5688
5784 5782 5781 5780 5779 5777 5776 5774 5773 5771 5769 5767 5765 5762 5760 5757 5755 5752 5750 5747 5745 5742 5739 5736 5733 5730 5728 5726 5724 5722 5720 5717 5714 5712 5708 5705 5702 5701 5698 5694 5690 5688 5686 5685 5684 5683 5682 5682 5683 5683 5682 5682 5682 5682 5681 5681 5681 5681 5681 5681 5681 5682 5682 5683 5683 5683 5683 5683 5682 5682 5683 5683 5683 5683 5683 5683 5683 5682 5682 5681 5681 5680 5680 5679 5678
5777 5776 5775 5773 5771 5770 5768 5766 5764 5762 5760 5758 5755 5752 5750 5747 5745 5742 5739 5736 5734 5731 5728 5725 5722 5719 5716 5714 5712 5710 5708 5706 5703 5700 5697 5693 5691 5689 5686 5682 5679 5677 5674 5672 5672 5671 5671 5671 5671 5671 5670 5670 5670 5671 5670 5670 5669 5670 5671 5671 5672 5673 5672 5672 5672 5673 5673 5673 5673 5673 5673 5673 5673 5673 5673 5673 5673 5672 5672 5671 5671 5670 5670 5669 5669
5772 5770 5769 5767 5765 5763 5761 5759 5756 5754 5752 5749 5746 5744 5741 5738 5735 5732 5729 5726 5723 5721 5718 5715 5712 5709 5706 5704 5702 5700 5697 5694 5691 5688 5686 5683 5680 5678 5675 5672 5670 5667 5665 5663 5662 5662 5662 5663 5663 5663 5661 5661 5661 5661 5661 5660 5660 5661 5662 5663 5664 5664 5662 5662 5663 5664 5664 5663 5664 5664 5664 5664 5664 5664 5664 5664 5664 5663 5663 5663 5662 5661 5661 5660 5660
5766 5764 5762 5760 5758 5756 5754 5751 5749 5747 5744 5741 5738 5736 5733 5729 5726 5723 5720 5716 5713 5711 5708 5705 5702 5700 5697 5695 5693 5690 5687 5684 5681 5678 5675 5672 5670 5668 5665 5662 5660 5658 5656 5655 5655 5655 5655 5656 5656 5654 5653 5653 5654 5654 5653 5653 5653 5653 5653 5655 5656 5655 5654 5654 5654 5655 5655 5655 5655 5655 5656 5656 5656 5656 5656 5656 5655 5655 5655 5654 5654 5653 5653 5652 5651
5760 5758 5756 5754 5752 5749 5747 5744 5742 5739 5736 5733 5730 5727 5724 5721 5717 5714 5711 5708 5704 5702 5699 5696 5694 5692 5689 5686 5684 5681 5678 5675 5672 5669 5666 5663 5661 5659 5656 5653 5651 5649 5648 5647 5647 5647 5648 5648 5647 5646 5645 5646 5647 5646 5645 5645 5645 5645 5645 5646 5647 5647 5646 5646 5646 5646 5646 5647 5647 5647 5647 5648 5648 5647 5647 5647 5647 5647 5646 5646 5645 5645 5644 5644 5643
5753 5752 5749 5747 5744 5742 5739 5736 5734 5731 5728 5725 5721 5718 5715 5712 5709 5706 5703 5700 5696 5693 5690 5688 5686 5684 5681 5678 5675 5673 5670 5667 5664 5661 5658 5655 5653 5650 5647 5644 5642 5641 5639 5638 5638 5639 5639 5639 5639 5639 5639 5639 5639 5638 5637 5637 5637 5637 5637 5638 5639 5639 5638 5637 5637 5638 5638 5638 5639 5639 5639 5639 5639 5639 5639 5639 5639 5638 5638 5638 5637 5636 5636 5635 5635